Location: Tierz
(42.1336°N, 0.3549°W)
Time: 18:16:13
(UTC+00:00)

IRS-1C Rocket - Pass Details

Date: 29 October 2020
Orbit: 800 x 805 km, 99.0° (Epoch: 03 December)

Event Time Altitude Azimuth Distance (km) Brightness Sun altitude
Rises 18:27:33 0° 172° (S) 3,300 7.2 -17.0°
Reaches altitude 10° 18:29:53 10° 175° (S) 2,374 6.5 -17.4°
Maximum altitude 18:35:06 65° 258° (WSW) 881 4.5 -18.4°
Drops below altitude 10° 18:40:21 10° 340° (NNW) 2,394 6.8 -19.4°
Sets 18:42:44 0° 344° (NNW) 3,329 7.5 -19.8°
